This is the latest recevied weather packets stored in our database for station/object KC8BSD. If no packets are shown the sender has not sent any weather packets the latest 10 day(s).
| Time | Temp. | Humidity | Pressure | Rain* | Wind** | Luminosity | Snow |
|---|---|---|---|---|---|---|---|
| 1777587912 | 12.78° C | 44% | 1015.4 hPa | 0 mm | - | 139 W/m² | - |
| 1777587608 | 12.78° C | 44% | 1015.3 hPa | 0 mm | - | 192 W/m² | - |
| 1777587303 | 12.22° C | 45% | 1015.4 hPa | 0 mm | - | 134 W/m² | - |
| 1777586998 | 12.22° C | 46% | 1015.4 hPa | 0 mm | - | 134 W/m² | - |
| 1777586694 | 12.78° C | 44% | 1015.5 hPa | 0 mm | - | 227 W/m² | - |
| 1777586390 | 12.78° C | 44% | 1015.5 hPa | 0 mm | - | 176 W/m² | - |
| 1777586089 | 12.78° C | 44% | 1015.3 hPa | 0 mm | - | 245 W/m² | - |
| 1777585788 | 12.22° C | 46% | 1015.3 hPa | 0 mm | - | 178 W/m² | - |
| 1777585483 | 11.11° C | 46% | 1015.4 hPa | 0 mm | - | 467 W/m² | - |
| 1777585179 | 11.11° C | 45% | 1015.2 hPa | 0 mm | - | 343 W/m² | - |
| 1777584875 | 11.11° C | 45% | 1015.3 hPa | 0 mm | - | 169 W/m² | - |
| 1777584572 | 11.11° C | 45% | 1015.4 hPa | 0 mm | - | 145 W/m² | - |
| 1777584269 | 11.67° C | 47% | 1015.1 hPa | 0 mm | - | 157 W/m² | - |
| 1777583969 | 12.22° C | 44% | 1015.1 hPa | 0 mm | - | 465 W/m² | - |
| 1777583664 | 12.22° C | 46% | 1015.2 hPa | 0 mm | - | 221 W/m² | - |
| 1777583364 | 11.11° C | 47% | 1015.2 hPa | 0 mm | - | 239 W/m² | - |
| 1777583058 | 11.67° C | 47% | 1015.2 hPa | 0 mm | - | 101 W/m² | - |
| 1777582755 | 11.11° C | 47% | 1015.3 hPa | 0 mm | - | 114 W/m² | - |
| 1777582445 | 12.22° C | 46% | 1015.4 hPa | 0 mm | - | 164 W/m² | - |
| 1777582145 | 12.22° C | 44% | 1015.3 hPa | 0 mm | - | 378 W/m² | - |
| 1777581844 | 12.78° C | 43% | 1015.4 hPa | 0 mm | - | 173 W/m² | - |
| 1777581543 | 12.78° C | 45% | 1015.3 hPa | 0 mm | - | 670 W/m² | - |
| 1777581239 | 11.67° C | 47% | 1015.5 hPa | 0 mm | - | 617 W/m² | - |
| 1777580933 | 11.11° C | 47% | 1015.5 hPa | 0 mm | - | 330 W/m² | - |
| 1777580633 | 11.11° C | 47% | 1015.7 hPa | 0 mm | - | 144 W/m² | - |
* Rain latest hour (hover to see other rain measurements)
** Current wind speed in m/s (hover to see current wind gust speed)